Change the Weather History Date:

Wednesday, December 4, 2013

  Actual Average (KNFG) Record (KNFG)
Temperature  
Mean Temperature 48 °F -  
Max Temperature 57 °F 66 °F 81 °F (2000)
Min Temperature 39 °F 38 °F 28 °F (2011)
Degree Days  
Heating Degree Days 17    
Moisture  
Dew Point 37 °F    
Average Humidity 68    
Maximum Humidity 94    
Minimum Humidity 41    
Precipitation  
Precipitation 0.00 in - - ()
Sea Level Pressure  
Sea Level Pressure 29.89 in    
Wind  
Wind Speed 5 mph (SSW)    
Max Wind Speed 12 mph    
Max Gust Speed 18 mph    
Visibility 10 miles    
Events      
Averages and records for this station are not official NWS values.
T = Trace of Precipitation, MM = Missing Value Source: NWS Daily Summary

Daily Weather History Graph

Daily Weather History Graph

Search for Another Location

Airport or City:

Trip Planner

Search our weather history database for the weather conditions in past years. The results will help you decide how hot, cold, wet, or windy it might be!

Date:

Astronomy

Dec. 04, 2013 Rise Set
Actual Time 6:37 AM PST 4:40 PM PST
Civil Twilight 6:10 AM PST 5:07 PM PST
Nautical Twilight 5:39 AM PST 5:38 PM PST
Astronomical Twilight 5:09 AM PST 6:08 PM PST
Moon 8:11 AM PST (12/4) 6:53 PM PST (12/4)
Length of Visible Light 10h 57m
Length of Day
10h 02m
Waxing Crescent, 5% of the Moon is Illuminated
Dec 4
Waxing Crescent
Dec 9
First Quarter
Dec 17
Full
Dec 25
Last Quarter
Jan 1
New

Hourly Weather History & Observations

Time (PST) Temp. Windchill Dew Point Humidity Pressure Visibility Wind Dir Wind Speed Gust Speed Precip Events Conditions
12:15 AM 53.6 °F - 51.8 °F 94% 29.78 in 7.0 mi SSW 6.9 mph - N/A   Overcast
12:35 AM 53.6 °F - 50.0 °F 88% 29.78 in 7.0 mi SSW 11.5 mph 18.4 mph N/A   Overcast
12:55 AM 51.8 °F - 50.0 °F 94% 29.77 in 10.0 mi SW 8.1 mph - N/A   Mostly Cloudy
1:15 AM 51.8 °F - 46.4 °F 82% 29.78 in 10.0 mi SW 10.4 mph - N/A   Mostly Cloudy
1:35 AM 50.0 °F - 42.8 °F 76% 29.78 in 10.0 mi WSW 11.5 mph - N/A   Mostly Cloudy
1:55 AM 50.0 °F - 42.8 °F 76% 29.79 in 10.0 mi WSW 9.2 mph - N/A   Overcast
2:15 AM 50.0 °F - 42.8 °F 76% 29.79 in 10.0 mi SW 8.1 mph - N/A   Mostly Cloudy
2:35 AM 50.0 °F - 41.0 °F 71% 29.80 in 10.0 mi SSW 6.9 mph - N/A   Scattered Clouds
2:55 AM 50.0 °F - 42.8 °F 76% 29.80 in 10.0 mi SSW 4.6 mph - N/A   Mostly Cloudy
3:15 AM 48.2 °F - 42.8 °F 82% 29.80 in 10.0 mi SSW 5.8 mph - N/A   Scattered Clouds
3:35 AM 48.2 °F - 42.8 °F 82% 29.80 in 10.0 mi SW 4.6 mph - N/A   Scattered Clouds
3:55 AM 48.2 °F - 42.8 °F 82% 29.81 in 10.0 mi SSW 4.6 mph - N/A   Scattered Clouds
4:15 AM 46.4 °F 44.3 °F 42.8 °F 87% 29.81 in 10.0 mi SSW 4.6 mph - N/A   Clear
4:35 AM 48.2 °F - 41.0 °F 76% 29.81 in 10.0 mi SSW 4.6 mph - N/A   Clear
4:55 AM 44.6 °F 43.1 °F 41.0 °F 87% 29.82 in 10.0 mi South 3.5 mph - N/A   Clear
5:15 AM 46.4 °F 45.2 °F 39.2 °F 76% 29.82 in 10.0 mi SSW 3.5 mph - N/A   Scattered Clouds
5:35 AM 46.4 °F - 39.2 °F 76% 29.83 in 10.0 mi Calm Calm - N/A   Clear
5:55 AM 44.6 °F - 39.2 °F 81% 29.85 in 10.0 mi Calm Calm - N/A   Clear
6:15 AM 42.8 °F 41.1 °F 39.2 °F 87% 29.86 in 10.0 mi South 3.5 mph - N/A   Clear
6:35 AM 42.8 °F - 39.2 °F 87% 29.88 in 10.0 mi Calm Calm - N/A   Scattered Clouds
6:55 AM 41.0 °F - 39.2 °F 93% 29.89 in 10.0 mi Calm Calm - N/A   Scattered Clouds
7:15 AM 42.8 °F - 39.2 °F 87% 29.89 in 10.0 mi Calm Calm - N/A   Scattered Clouds
7:35 AM 42.8 °F - 39.2 °F 87% 29.90 in 10.0 mi Calm Calm - N/A   Scattered Clouds
7:55 AM 42.8 °F - 39.2 °F 87% 29.91 in 10.0 mi Calm Calm - N/A   Scattered Clouds
8:15 AM 46.4 °F - 41.0 °F 81% 29.92 in 10.0 mi Calm Calm - N/A   Overcast
8:35 AM 48.2 °F - 41.0 °F 76% 29.93 in 10.0 mi SSE 3.5 mph - N/A   Mostly Cloudy
8:55 AM 48.2 °F - 41.0 °F 76% 29.93 in 10.0 mi South 3.5 mph - N/A   Mostly Cloudy
9:15 AM 50.0 °F - 39.2 °F 66% 29.94 in 10.0 mi Calm Calm - N/A   Overcast
9:35 AM 51.8 °F - 39.2 °F 62% 29.93 in 10.0 mi SSE 6.9 mph - N/A   Mostly Cloudy
9:55 AM 51.8 °F - 39.2 °F 62% 29.93 in 10.0 mi South 6.9 mph - N/A   Clear
10:15 AM 51.8 °F - 37.4 °F 58% 29.93 in 10.0 mi SSE 5.8 mph - N/A   Scattered Clouds
10:35 AM 51.8 °F - 37.4 °F 58% 29.93 in 10.0 mi WSW 6.9 mph - N/A   Overcast
10:55 AM 53.6 °F - 35.6 °F 51% 29.93 in 10.0 mi SW 4.6 mph - N/A   Scattered Clouds
11:15 AM 53.6 °F - 35.6 °F 51% 29.92 in 10.0 mi SSW 5.8 mph - N/A   Scattered Clouds
11:35 AM 53.6 °F - 35.6 °F 51% 29.91 in 10.0 mi Calm Calm - N/A   Mostly Cloudy
11:55 AM 55.4 °F - 35.6 °F 47% 29.91 in 10.0 mi Calm Calm - N/A   Mostly Cloudy
12:15 PM 53.6 °F - 35.6 °F 51% 29.90 in 10.0 mi SE 4.6 mph - N/A   Overcast
12:35 PM 57.2 °F - 35.6 °F 44% 29.90 in 10.0 mi SSW 4.6 mph - N/A   Scattered Clouds
12:55 PM 55.4 °F - 33.8 °F 44% 29.89 in 10.0 mi Calm Calm - N/A   Scattered Clouds
1:15 PM 55.4 °F - 33.8 °F 44% 29.89 in 10.0 mi SSW 4.6 mph - N/A   Scattered Clouds
1:35 PM 55.4 °F - 33.8 °F 44% 29.88 in 10.0 mi South 8.1 mph - N/A   Scattered Clouds
1:55 PM 57.2 °F - 35.6 °F 44% 29.88 in 10.0 mi SSW 9.2 mph 16.1 mph N/A   Overcast
2:15 PM 55.4 °F - 37.4 °F 51% 29.89 in 10.0 mi SSW 9.2 mph - N/A   Scattered Clouds
2:35 PM 55.4 °F - 37.4 °F 51% 29.89 in 10.0 mi SW 11.5 mph - N/A   Clear
2:55 PM 55.4 °F - 35.6 °F 47% 29.89 in 10.0 mi SW 6.9 mph - N/A   Clear
3:15 PM 55.4 °F - 33.8 °F 44% 29.90 in 10.0 mi SW 8.1 mph - N/A   Clear
3:35 PM 53.6 °F - 32.0 °F 44% 29.89 in 10.0 mi SSW 10.4 mph - N/A   Clear
3:55 PM 53.6 °F - 30.2 °F 41% 29.89 in 10.0 mi SSW 6.9 mph - N/A   Clear
4:15 PM 51.8 °F - 28.4 °F 41% 29.89 in 10.0 mi SW 10.4 mph - N/A   Clear
4:35 PM 51.8 °F - 30.2 °F 44% 29.90 in 10.0 mi SW 10.4 mph - N/A   Clear
4:55 PM 50.0 °F - 32.0 °F 50% 29.90 in 10.0 mi SW 10.4 mph - N/A   Clear
5:15 PM 50.0 °F - 32.0 °F 50% 29.91 in 10.0 mi SSW 3.5 mph - N/A   Clear
5:35 PM 48.2 °F - 32.0 °F 54% 29.91 in 10.0 mi SW 6.9 mph - N/A   Clear
5:55 PM 48.2 °F - 32.0 °F 54% 29.92 in 10.0 mi SW 5.8 mph - N/A   Clear
6:15 PM 48.2 °F - 32.0 °F 54% 29.93 in 10.0 mi SW 4.6 mph - N/A   Clear
6:35 PM 46.4 °F 44.3 °F 33.8 °F 62% 29.94 in 10.0 mi SW 4.6 mph - N/A   Clear
6:55 PM 46.4 °F 44.3 °F 35.6 °F 66% 29.94 in 10.0 mi SSW 4.6 mph - N/A   Clear
7:15 PM 44.6 °F - 33.8 °F 66% 29.94 in 10.0 mi Calm Calm - N/A   Clear
7:35 PM 44.6 °F - 35.6 °F 71% 29.94 in 10.0 mi Calm Calm - N/A   Clear
7:55 PM 44.6 °F 43.1 °F 35.6 °F 71% 29.94 in 10.0 mi ESE 3.5 mph - N/A   Clear
8:15 PM 42.8 °F 41.1 °F 35.6 °F 76% 29.95 in 10.0 mi SE 3.5 mph - N/A   Clear
8:35 PM 44.6 °F - 35.6 °F 71% 29.95 in 10.0 mi Calm Calm - N/A   Clear
8:55 PM 42.8 °F - 35.6 °F 76% 29.96 in 10.0 mi Calm Calm - N/A   Clear
9:15 PM 41.0 °F - 33.8 °F 76% 29.96 in 10.0 mi Calm Calm - N/A   Clear
9:35 PM 42.8 °F - 35.6 °F 76% 29.96 in 10.0 mi Calm Calm - N/A   Clear
9:55 PM 42.8 °F - 33.8 °F 70% 29.96 in 10.0 mi Calm Calm - N/A   Scattered Clouds
10:15 PM 39.2 °F - 33.8 °F 81% 29.96 in 10.0 mi Calm Calm - N/A   Scattered Clouds
10:35 PM 39.2 °F - 33.8 °F 81% 29.96 in 10.0 mi Calm Calm - N/A   Scattered Clouds
10:55 PM 39.2 °F - 33.8 °F 81% 29.96 in 10.0 mi Calm Calm - N/A   Scattered Clouds
11:15 PM 39.2 °F - 33.8 °F 81% 29.96 in 10.0 mi Calm Calm - N/A   Mostly Cloudy
11:35 PM 39.2 °F - 33.8 °F 81% 29.96 in 10.0 mi Calm Calm - N/A   Mostly Cloudy
11:55 PM 39.2 °F - 33.8 °F 81% 29.96 in 10.0 mi Calm Calm - N/A   Scattered Clouds